(121394) = 1999 TM120

Discovered at Socorro on 1999-10-04 by LINEAR.

Orbit

Orbit type: Main Belt

Note: WebGL enabled browser required.

epoch2023-09-13.0
epoch JD2460200.5
perihelion date2019-10-03.83619
perihelion JD2458760.33619
argument of perihelion (°)319.81937
ascending node (°)4.00490
inclination (°)13.73653
eccentricity0.1777935
perihelion distance (AU)2.0999947
Tisserand w.r.t. Jupiter3.4
ΔV w.r.t. Earth (km/sec)10.0
semimajor axis (AU)2.5540963
mean anomaly (°)347.74416
mean daily motion (°/day)0.24146150
aphelion distance (AU)3.008
period (years)4.08
P-vector [x]0.80592152
P-vector [y]-0.46372415
P-vector [z]-0.36803590
Q-vector [x]0.59179005
Q-vector [y]0.64843574
Q-vector [z]0.47886911
absolute magnitude15.68
phase slope0.15
uncertainty0
referenceMPEC 2024-A48
observations used728
oppositions18
arc length (days)8822
first opposition used1999
last opposition used2023
residual rms (arc-secs)0.75
perturbers coarse indicatorM-v
perturbers precise indicator003Ek
first observation date used1999-09-05.0
last observation date used2023-10-31.0
computer nameMPCLINUX
JD of orbit computation2456937.217589
perihelion JD uncertainty (days)6.7772E-05
argument of perihelion uncertainty (°)1.9717E-05
ascending node uncertainty (°)1.2326E-05
inclination uncertainty (°)7.7702E-06
eccentricity uncertainty 6.7996E-08
perihelion distance uncertainty (AU)1.7934E-07
Minimum Orbit Intersection Distances (in AU)
for orbit epoch: 2460200.5, reference: E2024-A48
Mercury1.68251
Venus1.37669
Earth1.10777
Mars0.73867
Jupiter2.4122
Saturn6.24602
Uranus15.4767
Neptune27.3692

Observations

739 total observations over interval: 1999 09 05.38622 – 2023 10 31.223487
These data are available for download (format description).

Date (UT) J2000 RA J2000 Dec Magn Location Ref
1999 09 05.38622 01 27 07.61 +09 52 57.0 19.1 R 699 – Lowell Observatory-LONEOS MPS 13793
1999 09 05.41690 01 27 06.60 +09 53 06.8   699 – Lowell Observatory-LONEOS MPS 13793
1999 09 05.44759 01 27 05.52 +09 53 17.6   699 – Lowell Observatory-LONEOS MPS 13793
1999 09 07.45550 01 26 00.51 +10 04 03.0 18.8   704 – Lincoln Laboratory ETS, New Mexico MPS 13793
1999 09 07.46717 01 26 00.05 +10 04 06.8 18.9   704 – Lincoln Laboratory ETS, New Mexico MPS 13793
1999 09 07.47906 01 25 59.63 +10 04 10.5 19.1   704 – Lincoln Laboratory ETS, New Mexico MPS 13793
1999 09 18.37375 01 17 55.01 +10 53 22.1 18.8 R 703 – Catalina Sky Survey MPS 15322
1999 09 18.38049 01 17 54.47 +10 53 24.4 18.6 R 703 – Catalina Sky Survey MPS 15322
1999 09 18.38720 01 17 54.16 +10 53 24.9 18.1 R 703 – Catalina Sky Survey MPS 15322
1999 09 18.39395 01 17 53.75 +10 53 26.6 18.2 R 703 – Catalina Sky Survey MPS 15322
1999 10 01.31601 01 04 35.63 +11 31 04.5 18.0 R 703 – Catalina Sky Survey MPS 15322
1999 10 01.32851 01 04 34.77 +11 31 06.2 18.1 R 703 – Catalina Sky Survey MPS 15322
1999 10 01.34091 01 04 33.88 +11 31 07.7 18.3 R 703 – Catalina Sky Survey MPS 15322
1999 10 01.35328 01 04 32.99 +11 31 09.4 18.3 R 703 – Catalina Sky Survey MPS 15322
1999 10 04.29782 01 01 11.56 +11 36 41.4 18.1   704 – Lincoln Laboratory ETS, New Mexico MPS 13793
1999 10 04.31129 01 01 10.60 +11 36 43.1 18.4   704 – Lincoln Laboratory ETS, New Mexico MPS 13793
1999 10 04.32465 01 01 09.67 +11 36 44.3 18.5   704 – Lincoln Laboratory ETS, New Mexico MPS 13793
1999 10 04.33806 01 01 08.70 +11 36 45.8 18.4   704 – Lincoln Laboratory ETS, New Mexico MPS 13793
1999 10 04.35144 01 01 07.72 +11 36 46.5 18.5   704 – Lincoln Laboratory ETS, New Mexico MPS 13793
1999 10 10.25807 00 54 18.50 +11 44 58.7 18.1   704 – Lincoln Laboratory ETS, New Mexico MPS 13793
1999 10 10.27382 00 54 17.32 +11 45 01.2 18.2   704 – Lincoln Laboratory ETS, New Mexico MPS 13793
1999 10 10.28955 00 54 16.20 +11 45 00.9 18.1   704 – Lincoln Laboratory ETS, New Mexico MPS 13793
1999 10 10.32107 00 54 13.95 +11 45 03.0 18.2   704 – Lincoln Laboratory ETS, New Mexico MPS 13793
1999 10 20.17617 00 43 22.76 +11 52 18.5 18.5   704 – Lincoln Laboratory ETS, New Mexico MPS 15322
1999 10 20.19176 00 43 21.76 +11 52 18.8 18.7   704 – Lincoln Laboratory ETS, New Mexico MPS 15322
1999 10 20.20739 00 43 20.69 +11 52 19.7 19.0   704 – Lincoln Laboratory ETS, New Mexico MPS 15322
1999 10 20.22293 00 43 19.76 +11 52 20.4 18.9   704 – Lincoln Laboratory ETS, New Mexico MPS 15322
1999 10 20.23850 00 43 18.74 +11 52 20.2 18.6   704 – Lincoln Laboratory ETS, New Mexico MPS 15322
1999 11 05.15747 00 30 00.13 +11 59 24.3 19.0   704 – Lincoln Laboratory ETS, New Mexico MPS 15322
1999 11 05.17350 00 29 59.43 +11 59 24.1 18.7   704 – Lincoln Laboratory ETS, New Mexico MPS 15322
1999 11 05.18970 00 29 58.81 +11 59 25.5 18.5   704 – Lincoln Laboratory ETS, New Mexico MPS 15322
2002 04 09.33176 13 23 06.09 -16 26 02.0 19.6   704 – Lincoln Laboratory ETS, New Mexico MPS 54476
2002 04 09.34385 13 23 05.17 -16 26 02.4 19.4   704 – Lincoln Laboratory ETS, New Mexico MPS 54476
2002 04 09.35593 13 23 04.46 -16 26 00.4 19.4   704 – Lincoln Laboratory ETS, New Mexico MPS 54476
2002 04 12.31920 13 19 53.24 -16 23 15.0 18.6   704 – Lincoln Laboratory ETS, New Mexico MPS 54476
2002 04 12.34675 13 19 51.51 -16 23 13.5 18.9   704 – Lincoln Laboratory ETS, New Mexico MPS 54476
2002 04 12.36048 13 19 50.69 -16 23 11.7 19.4   704 – Lincoln Laboratory ETS, New Mexico MPS 54476
2002 05 15.16476 12 49 30.43 -15 22 39.8 20.1   644 – Palomar Mountain/NEAT MPS 54366
2002 05 15.18595 12 49 29.60 -15 22 38.0 19.8   644 – Palomar Mountain/NEAT MPS 54366
2002 05 15.20678 12 49 28.81 -15 22 35.7 19.7   644 – Palomar Mountain/NEAT MPS 54366
2002 05 17.15956 12 48 20.62 -15 19 29.4 19.6   644 – Palomar Mountain/NEAT MPS 54366
2002 05 17.18010 12 48 19.90 -15 19 27.5 19.8   644 – Palomar Mountain/NEAT MPS 54366
2002 05 17.20086 12 48 19.17 -15 19 25.5 19.6   644 – Palomar Mountain/NEAT MPS 54366
2003 08 01.39056 00 46 48.80 -02 24 56.0 18.9   704 – Lincoln Laboratory ETS, New Mexico MPS 82610
2003 08 01.40112 00 46 48.96 -02 24 51.5 19.9   704 – Lincoln Laboratory ETS, New Mexico MPS 82610
2003 08 01.41208 00 46 49.12 -02 24 47.1 19.3   704 – Lincoln Laboratory ETS, New Mexico MPS 82610
2003 08 01.42265 00 46 49.31 -02 24 43.3 18.9   704 – Lincoln Laboratory ETS, New Mexico MPS 82610
2003 08 01.43333 00 46 49.50 -02 24 40.3 19.8   704 – Lincoln Laboratory ETS, New Mexico MPS 82610
2003 08 23.35054 00 45 00.78 -00 30 55.7 18.1   704 – Lincoln Laboratory ETS, New Mexico MPS 83212
2003 08 23.36263 00 45 00.40 -00 30 52.8 18.6   704 – Lincoln Laboratory ETS, New Mexico MPS 83212
2003 08 23.37502 00 45 00.05 -00 30 49.2 18.4   704 – Lincoln Laboratory ETS, New Mexico MPS 83212
2003 08 23.38731 00 44 59.69 -00 30 46.3 18.7   704 – Lincoln Laboratory ETS, New Mexico MPS 83212
2003 08 23.39939 00 44 59.35 -00 30 43.4 18.8   704 – Lincoln Laboratory ETS, New Mexico MPS 83212
2003 08 26.35345 00 43 30.38 -00 19 01.2 19.0   704 – Lincoln Laboratory ETS, New Mexico MPS 83212
2003 08 26.36642 00 43 29.93 -00 18 58.2 19.4   704 – Lincoln Laboratory ETS, New Mexico MPS 83212
2003 08 26.37901 00 43 29.51 -00 18 56.1 19.7   704 – Lincoln Laboratory ETS, New Mexico MPS 83212
2003 08 26.39228 00 43 29.02 -00 18 52.1 19.1   704 – Lincoln Laboratory ETS, New Mexico MPS 83212
2003 08 26.40482 00 43 28.61 -00 18 50.5 19.5   704 – Lincoln Laboratory ETS, New Mexico MPS 83212
2003 09 02.30708 00 38 54.05 +00 05 22.4 18.4   704 – Lincoln Laboratory ETS, New Mexico MPS 83924
2003 09 02.31868 00 38 53.47 +00 05 24.4 19.0   704 – Lincoln Laboratory ETS, New Mexico MPS 83924
2003 09 02.33033 00 38 52.93 +00 05 26.5 18.8   704 – Lincoln Laboratory ETS, New Mexico MPS 83924
2003 09 02.34195 00 38 52.34 +00 05 29.0 18.9   704 – Lincoln Laboratory ETS, New Mexico MPS 83924
2003 09 02.35352 00 38 51.78 +00 05 31.2 18.9   704 – Lincoln Laboratory ETS, New Mexico MPS 83924
2003 09 04.31100 00 37 18.08 +00 11 39.1 18.9   704 – Lincoln Laboratory ETS, New Mexico MPS 83924
2003 09 04.32353 00 37 17.50 +00 11 41.8 19.0   704 – Lincoln Laboratory ETS, New Mexico MPS 83924
2003 09 04.33606 00 37 16.81 +00 11 44.1 19.0   704 – Lincoln Laboratory ETS, New Mexico MPS 83924
2003 09 04.34854 00 37 16.14 +00 11 46.0 19.3   704 – Lincoln Laboratory ETS, New Mexico MPS 83924
2003 09 04.36131 00 37 15.51 +00 11 48.8 18.9   704 – Lincoln Laboratory ETS, New Mexico MPS 83924
2003 09 05.31923 00 36 27.39 +00 14 42.2 18.4   704 – Lincoln Laboratory ETS, New Mexico MPS 83924
2003 09 05.33307 00 36 26.61 +00 14 44.3 18.7   704 – Lincoln Laboratory ETS, New Mexico MPS 83924
2003 09 05.34705 00 36 25.87 +00 14 47.1 18.9   704 – Lincoln Laboratory ETS, New Mexico MPS 83924
2003 09 05.36138 00 36 25.09 +00 14 49.5 18.6   704 – Lincoln Laboratory ETS, New Mexico MPS 83924
2003 09 16.27616 00 25 45.29 +00 43 36.6 17.7 R 699 – Lowell Observatory-LONEOS MPS 85021
2003 09 16.29606 00 25 43.97 +00 43 37.9   699 – Lowell Observatory-LONEOS MPS 85021
2003 09 16.31605 00 25 42.62 +00 43 41.0   699 – Lowell Observatory-LONEOS MPS 85021
2003 09 16.33606 00 25 41.31 +00 43 43.3   699 – Lowell Observatory-LONEOS MPS 85021
2003 09 18.40556 00 23 25.33 +00 48 28.2 18.0 V 691 – Steward Observatory, Kitt Peak-Spacewatch MPS 84452
2003 09 18.43277 00 23 23.47 +00 48 31.9 18.0 V 691 – Steward Observatory, Kitt Peak-Spacewatch MPS 84452
2003 09 18.46084 00 23 21.55 +00 48 35.7 18.1 V 691 – Steward Observatory, Kitt Peak-Spacewatch MPS 84452
2003 09 19.29914 00 22 26.03 +00 50 28.0 18.2   704 – Lincoln Laboratory ETS, New Mexico MPS 85021
2003 09 19.31138 00 22 25.19 +00 50 29.8 18.3   704 – Lincoln Laboratory ETS, New Mexico MPS 85021
2003 09 19.32359 00 22 24.34 +00 50 30.6 18.3   704 – Lincoln Laboratory ETS, New Mexico MPS 85021
2003 09 19.33572 00 22 23.48 +00 50 32.9 18.3   704 – Lincoln Laboratory ETS, New Mexico MPS 85021
2003 09 19.34797 00 22 22.66 +00 50 33.8 18.2   704 – Lincoln Laboratory ETS, New Mexico MPS 85021
2003 09 26.24265 00 14 32.78 +01 05 13.4 18.5   704 – Lincoln Laboratory ETS, New Mexico MPS 86040
